KISSLEGG Weather Reports


time (UTC)temp
C
wind
direction
speed
KPH
gust
KPH
rain 1hr
cm
rain 24hr
cm
rain mn
cm
humidity
%
barometer
mb
20260507033211 7 360 0.0 0.0 0.00 0.00 0.00 93 1011.6
20260507030211 7 360 0.0 0.0 0.00 0.00 0.00 92 1011.6
20260507023211 7 360 0.0 0.0 0.00 0.00 0.00 93 1011.5
20260507020211 7 360 0.0 0.0 0.00 0.00 0.00 94 1011.4
20260507013212 7 360 0.0 0.0 0.00 0.00 0.00 95 1011.2
20260507010211 6 360 0.0 0.0 0.00 0.00 0.00 95 1011.2
20260507003209 6 360 0.0 0.0 0.00 0.00 0.00 94 1011.0
20260507000209 6 360 0.0 0.0 0.00 0.00 0.00 94 1011.0
20260506233209 7 244 0.0 0.0 0.00 0.00 0.00 94 1011.0
20260506230209 7 360 0.0 0.0 0.00 0.00 0.00 93 1010.8
20260506223209 7 360 0.0 0.0 0.00 0.00 0.00 93 1010.7
20260506220209 7 360 0.0 0.0 0.00 0.00 0.00 93 1010.6
20260506213209 8 360 0.0 0.0 0.00 0.00 0.15 92 1010.4
20260506210210 8 360 0.0 0.0 0.00 0.00 0.15 92 1010.3
20260506203210 8 360 0.0 0.0 0.00 0.00 0.15 92 1010.0
20260506200210 8 211 0.0 0.0 0.00 0.00 0.15 92 1009.9
20260506193215 8 193 0.0 0.0 0.00 0.00 0.15 92 1009.9
20260506190211 8 360 0.0 0.0 0.00 0.00 0.15 92 1009.2
20260506183209 8 211 0.0 0.0 0.00 0.00 0.15 91 1008.9
20260506180216 8 360 0.0 0.0 0.00 0.00 0.15 90 1008.6
20260506173210 9 360 0.0 0.0 0.00 0.00 0.15 90 1008.4
20260506170215 9 360 0.0 0.0 0.00 0.00 0.15 91 1008.1
20260506163210 9 360 0.0 0.0 0.00 0.00 0.15 91 1007.9
20260506160210 9 360 0.0 0.0 0.00 0.00 0.15 92 1008.1
20260506153210 9 360 0.0 0.0 0.00 0.00 0.15 93 1007.2
20260506150210 9 360 0.0 0.0 0.00 0.00 0.10 91 1006.7
20260506143210 11 360 0.0 0.0 0.00 0.00 0.05 82 1006.6
20260506140210 16 159 0.0 0.0 0.00 0.00 0.05 72 1005.2
20260506133211 15 209 0.0 0.0 0.00 0.00 0.05 84 1004.9
20260506130211 15 169 0.0 0.0 0.00 0.00 0.03 79 1005.7
20260506123210 16 161 0.0 0.0 0.00 0.00 0.00 65 1005.4
20260506120210 16 125 0.0 0.0 0.00 0.00 0.00 61 1005.0
20260506113217 15 117 0.0 0.0 0.00 0.00 0.00 64 1004.9
20260506110210 16 252 0.0 0.0 0.00 0.00 0.00 71 1005.3
20260506100213 14 69 0.0 0.0 0.00 0.00 0.00 72 1005.5
20260506093211 14 321 0.0 0.0 0.00 0.00 0.00 75 1005.5
20260506090211 14 279 0.0 0.0 0.00 0.00 0.00 77 1006.0
20260506083211 13 355 0.0 0.0 0.00 0.00 0.00 82 1005.9
20260506080212 12 351 0.0 0.0 0.00 0.00 0.00 86 1005.8
20260506073211 11 355 0.0 0.0 0.00 0.00 0.00 91 1006.0
20260506070212 11 40 0.0 0.0 0.00 0.00 0.00 91 1005.9
20260506060210 10 163 0.0 0.0 0.00 0.00 0.00 93 1006.1
20260506050211 8 163 0.0 0.0 0.00 0.00 0.00 94 1006.4
20260506043211 8 163 0.0 0.0 0.00 0.00 0.00 93 1006.5
20260506040211 8 163 0.0 0.0 0.00 0.00 0.00 93 1007.0